Orbital Elements at Epoch 2459200.5 (2020-Dec-17.0) TDB
Reference: JPL 26 (heliocentric ecliptic J2000)
Element | Value | Uncertainty (1-sigma) | Units |
e | .1022596763084872 | 3.8916e-08 | |
a | 2.340515216545492 | 7.8317e-09 | au |
q | 2.101174888106461 | 9.1046e-08 | au |
i | 10.86158049075476 | 4.8445e-06 | deg |
node | 21.01602898425044 | 1.666e-05 | deg |
peri | 24.99253024182537 | 2.5039e-05 | deg |
M | 314.7952585583452 | 1.8739e-05 | deg |
tp | 2459364.727967903903 (2021-May-30.22796790) | 6.8317e-05 | TDB |
period | 1307.873169050491 3.58 | 6.5645e-06 1.797e-08 | d yr |
n | .2752560481543926 | 1.3816e-09 | deg/d |
Q | 2.579855544984523 | 8.6326e-09 | au |
|
| | Orbit Determination Parameters
Additional Information
|